Location: Dugenta
(41.1333°N, 14.4500°E)
Time: 20:40:39
(UTC+00:00)

ARGOS - Pass Details

Date: 03 March 2021
Orbit: 819 x 835 km, 98.4° (Epoch: 18 April)

Event Time Altitude Azimuth Distance (km) Brightness Sun altitude
Rises 17:47:18 0° 158° (SSE) 3,364 6.1 -10.5°
Reaches altitude 10° 17:49:39 10° 156° (SSE) 2,436 5.4 -11.0°
Maximum altitude 17:55:01 70° 74° (ENE) 888 3.1 -12.0°
Drops below altitude 10° 18:00:26 10° 352° (N) 2,456 5.8 -13.0°
Sets 18:02:48 0° 350° (N) 3,394 6.5 -13.5°
